JE0GNV-13 Weather Reports


time (UTC)temp
C
wind
direction
speed
KPH
gust
KPH
rain 1hr
cm
rain 24hr
cm
rain mn
cm
humidity
%
barometer
mb
20260509162001 3 282 0.0 0.0 0.00 0.00 0.00 73 1016.0
20260509161000 4 282 0.0 0.0 0.00 0.00 0.00 71 1016.0
20260509160000 5 282 0.0 0.0 0.00 0.00 0.00 68 1016.0
20260509155000 5 282 0.0 0.0 0.00 0.00 0.00 66 1016.0
20260509154000 5 282 0.0 0.0 0.00 0.00 0.00 67 1016.0
20260509153001 4 282 0.0 0.0 0.00 0.00 0.00 69 1016.0
20260509152001 4 282 0.0 0.0 0.00 0.00 0.00 71 1016.1
20260509151001 4 282 0.0 0.0 0.00 0.00 0.00 73 1016.1
20260509150001 4 282 0.0 0.0 0.00 0.00 0.00 72 1015.9
20260509145001 4 282 0.0 0.0 0.00 0.00 0.00 71 1016.0
20260509144001 4 282 0.0 0.0 0.00 0.00 0.00 72 1016.0
20260509143000 4 282 0.0 0.0 0.00 0.00 0.00 71 1016.0
20260509142000 4 282 0.0 0.0 0.00 0.00 0.00 70 1015.8
20260509141000 4 282 0.0 0.0 0.00 0.00 0.00 71 1015.8
20260509140000 5 282 0.0 0.0 0.00 0.00 0.00 70 1015.7
20260509135001 5 282 0.0 0.0 0.00 0.00 0.00 68 1015.6
20260509134001 5 282 0.0 0.0 0.00 0.00 0.00 66 1015.6
20260509133000 6 282 0.0 0.0 0.00 0.00 0.00 63 1015.6
20260509132001 6 282 0.0 0.0 0.00 0.00 0.00 60 1015.5
20260509131000 5 282 0.0 0.0 0.00 0.00 0.00 62 1015.5
20260509130001 5 282 0.0 0.0 0.00 0.00 0.00 65 1015.3
20260509125001 6 282 0.0 0.0 0.00 0.00 0.00 65 1015.3
20260509124001 6 282 0.0 0.0 0.00 0.00 0.00 64 1015.3
20260509123002 6 282 0.0 0.0 0.00 0.00 0.00 65 1015.1
20260509122001 7 282 0.0 0.0 0.00 0.00 0.00 63 1015.0
20260509121001 7 282 0.0 0.0 0.00 0.00 0.00 62 1015.0
20260509120001 7 282 0.0 0.0 0.00 0.00 0.00 60 1014.9
20260509115001 8 282 0.0 0.0 0.00 0.00 0.00 57 1014.8
20260509114001 8 282 0.0 0.0 0.00 0.00 0.00 54 1014.8
20260509113000 9 282 0.0 0.0 0.00 0.00 0.00 50 1014.6
20260509112000 10 228 0.0 0.0 0.00 0.00 0.00 50 1014.4
20260509111001 10 228 0.0 0.0 0.00 0.00 0.00 47 1014.4
20260509110002 11 228 0.0 0.0 0.00 0.00 0.00 43 1013.9
20260509105002 11 96 0.0 0.0 0.00 0.00 0.00 43 1013.7
20260509104001 11 229 0.0 0.0 0.00 0.00 0.00 39 1013.7
20260509103001 12 334 0.0 0.0 0.00 0.00 0.00 38 1013.4
20260509102001 12 315 0.0 0.0 0.00 0.00 0.00 37 1013.5
20260509101001 12 304 0.0 0.0 0.00 0.00 0.00 37 1013.5
20260509100000 12 304 0.0 0.0 0.00 0.00 0.00 38 1013.2
20260509095000 12 296 0.0 0.0 0.00 0.00 0.00 37 1013.0
20260509094001 13 325 0.0 0.0 0.00 0.00 0.00 35 1013.0
20260509093000 13 271 0.0 0.0 0.00 0.00 0.00 33 1012.8
20260509092000 13 295 0.0 0.0 0.00 0.00 0.00 32 1012.7
20260509091000 13 220 0.0 0.0 0.00 0.00 0.00 31 1012.7
20260509090001 13 293 0.0 0.0 0.00 0.00 0.00 31 1012.5
20260509085000 14 276 0.0 0.0 0.00 0.00 0.00 30 1012.2
20260509084000 15 331 0.0 0.0 0.00 0.00 0.00 29 1012.2
20260509083001 15 296 0.0 0.0 0.00 0.00 0.00 29 1012.2
20260509082000 15 278 0.0 0.0 0.00 0.00 0.00 28 1012.0
20260509081001 16 350 0.0 0.0 0.00 0.00 0.00 27 1012.0
20260509080001 16 279 0.0 0.0 0.00 0.00 0.00 26 1011.8
20260509075001 16 248 0.0 0.0 0.00 0.00 0.00 27 1011.7
20260509074001 16 317 0.0 0.0 0.00 0.00 0.00 27 1011.7
20260509073001 16 297 0.0 0.0 0.00 0.00 0.00 27 1011.5
20260509072001 17 270 0.0 0.0 0.00 0.00 0.00 27 1011.3
20260509071001 17 339 0.0 0.0 0.00 0.00 0.00 26 1011.3
20260509070001 17 267 0.0 0.0 0.00 0.00 0.00 27 1011.1
20260509065001 17 265 0.0 0.0 0.00 0.00 0.00 27 1010.8
20260509064002 17 239 0.0 0.0 0.00 0.00 0.00 26 1010.8
20260509063002 17 340 0.0 0.0 0.00 0.00 0.00 26 1010.8
20260509062001 17 188 0.0 0.0 0.00 0.00 0.00 26 1010.7
20260509061001 17 295 0.0 0.0 0.00 0.00 0.00 27 1010.7
20260509060002 17 275 0.0 0.0 0.00 0.00 0.00 26 1010.6
20260509055000 17 203 0.0 0.0 0.00 0.00 0.00 29 1010.4
20260509054001 18 226 0.0 0.0 0.00 0.00 0.00 27 1010.4
20260509053001 18 11 0.0 0.0 0.00 0.00 0.00 28 1010.6
20260509052002 18 316 0.0 0.0 0.00 0.00 0.00 27 1010.7
20260509051000 18 305 0.0 0.0 0.00 0.00 0.00 29 1010.7
20260509050001 18 284 0.0 0.0 0.00 0.00 0.00 38 1010.5
20260509045000 18 123 0.0 0.0 0.00 0.00 0.00 36 1010.7
20260509044000 17 159 0.0 0.0 0.00 0.00 0.00 41 1010.7
20260509043000 17 201 0.0 0.0 0.00 0.00 0.00 37 1010.8
20260509042000 17 128 0.0 0.0 0.00 0.00 0.00 42 1010.8
20260509041001 18 102 0.0 0.0 0.00 0.00 0.00 39 1010.8
20260509040001 17 106 0.0 0.0 0.00 0.00 0.00 41 1010.7
20260509035001 17 131 0.0 0.0 0.00 0.00 0.00 42 1010.7
20260509034000 16 128 0.0 0.0 0.00 0.00 0.00 44 1010.7
20260509033001 16 259 0.0 0.0 0.00 0.00 0.00 44 1010.7
20260509032000 16 288 0.0 0.0 0.00 0.00 0.00 44 1010.7
20260509031000 16 146 0.0 0.0 0.00 0.00 0.00 47 1010.7
20260509030000 15 324 0.0 0.0 0.00 0.00 0.00 47 1010.9
20260509025001 15 119 0.0 0.0 0.00 0.00 0.00 46 1010.8
20260509024001 14 261 0.0 0.0 0.00 0.00 0.00 48 1010.8
20260509023001 14 218 0.0 0.0 0.00 0.00 0.00 47 1010.9
20260509022000 14 96 0.0 0.0 0.00 0.00 0.00 49 1011.0
20260509021000 14 208 0.0 0.0 0.00 0.00 0.00 50 1011.0
20260509020000 14 144 0.0 0.0 0.00 0.00 0.00 50 1011.0
20260509015002 15 117 0.0 0.0 0.00 0.00 0.00 51 1011.2
20260509014001 14 141 0.0 0.0 0.00 0.00 0.00 50 1011.2
20260509013000 15 214 0.0 0.0 0.00 0.00 0.00 51 1010.9
20260509012001 15 154 0.0 0.0 0.00 0.00 0.00 50 1011.0
20260509011001 15 176 0.0 0.0 0.00 0.00 0.00 52 1011.0
20260509010001 14 112 0.0 0.0 0.00 0.00 0.00 52 1011.0
20260509005001 13 132 0.0 0.0 0.00 0.00 0.00 54 1011.0
20260509004001 14 142 0.0 0.0 0.00 0.00 0.00 54 1011.0
20260509003002 14 126 0.0 0.0 0.00 0.00 0.00 53 1010.7
20260509002000 13 130 0.0 0.0 0.00 0.00 0.00 52 1010.5
20260509001002 13 244 0.0 0.0 0.00 0.00 0.00 55 1010.4
20260509000002 13 205 0.0 0.0 0.00 0.00 0.00 51 1010.2
20260508235001 13 296 0.0 0.0 0.00 0.00 0.00 49 1010.0
20260508234000 13 157 0.0 0.0 0.00 0.00 0.00 50 1009.9
20260508233001 13 129 0.0 0.0 0.00 0.00 0.00 48 1009.7
20260508232002 13 142 0.0 0.0 0.00 0.00 0.00 49 1009.7
20260508231002 13 141 0.0 0.0 0.00 0.03 0.00 46 1009.7
20260508230002 13 331 0.0 0.0 0.00 0.05 0.00 49 1009.4
20260508225002 12 298 0.0 0.0 0.00 0.08 0.00 51 1009.3
20260508224000 11 291 0.0 0.0 0.00 0.08 0.00 52 1009.3
20260508223002 11 287 0.0 0.0 0.00 0.08 0.00 52 1009.2
20260508222001 10 233 0.0 0.0 0.00 0.08 0.00 54 1008.9
20260508221000 10 306 0.0 0.0 0.00 0.08 0.00 55 1008.9
20260508220001 10 270 0.0 0.0 0.00 0.08 0.00 57 1008.9
20260508215001 10 291 0.0 0.0 0.00 0.08 0.00 55 1008.7
20260508214000 10 140 0.0 0.0 0.00 0.08 0.00 58 1008.7
20260508213001 9 104 0.0 0.0 0.00 0.08 0.00 60 1008.4
20260508212001 8 220 0.0 0.0 0.00 0.08 0.00 61 1008.5
20260508211001 8 99 0.0 0.0 0.00 0.08 0.00 61 1008.5
20260508210001 8 184 0.0 0.0 0.00 0.08 0.00 62 1008.4
20260508205001 7 192 0.0 0.0 0.00 0.08 0.00 62 1008.1
20260508204002 7 237 0.0 0.0 0.00 0.08 0.00 61 1008.1
20260508203001 7 257 0.0 0.0 0.00 0.08 0.00 60 1007.9
20260508202000 7 214 0.0 0.0 0.00 0.08 0.00 60 1007.8
20260508201001 7 198 0.0 0.0 0.00 0.08 0.00 60 1007.8
20260508200000 7 144 0.0 0.0 0.00 0.08 0.00 60 1007.7
20260508195000 6 99 0.0 0.0 0.00 0.08 0.00 60 1007.8
20260508194001 6 309 0.0 0.0 0.00 0.08 0.00 60 1007.8
20260508193001 6 259 0.0 0.0 0.00 0.08 0.00 62 1007.5
20260508192001 6 113 0.0 0.0 0.00 0.08 0.00 63 1007.3
20260508191002 6 301 0.0 0.0 0.00 0.08 0.00 61 1007.3
20260508190002 6 113 0.0 0.0 0.00 0.08 0.00 59 1007.5
20260508185001 7 113 0.0 0.0 0.00 0.08 0.00 57 1007.4
20260508184001 7 143 0.0 0.0 0.00 0.08 0.00 56 1007.4
20260508183000 7 113 0.0 0.0 0.00 0.08 0.00 52 1007.3
20260508182001 7 194 0.0 0.0 0.00 0.08 0.00 52 1007.3
20260508181000 7 230 0.0 0.0 0.00 0.08 0.00 50 1007.3
20260508180000 7 209 0.0 0.0 0.00 0.08 0.00 50 1006.9
20260508175001 7 246 0.0 0.0 0.00 0.08 0.00 48 1007.1
20260508174002 8 131 0.0 0.0 0.00 0.08 0.00 47 1007.1
20260508173000 8 129 0.0 0.0 0.00 0.08 0.00 47 1007.2
20260508172000 8 224 0.0 0.0 0.00 0.08 0.00 47 1007.3
20260508171001 8 83 0.0 0.0 0.00 0.08 0.00 47 1007.3
20260508170000 8 115 0.0 0.0 0.00 0.08 0.00 47 1007.4
20260508165000 7 125 0.0 0.0 0.00 0.08 0.00 48 1007.2
20260508164001 7 125 0.0 0.0 0.00 0.08 0.00 48 1007.2
20260508163001 8 130 0.0 0.0 0.00 0.08 0.00 48 1007.1